"2009-05-15 00:00:00",887356,3.352,55.06,15.79,0.711,16.38,107.6248,18.8,19.85,20.51,0,110.8,13.21,19.61,17.1
"2009-05-15 00:00:30",887357,3.631,69.3,8.18,0.468,17.21,107.6245,18.8,19.84,20.76,0,110.8,13.21,19.61,31.3
"2009-05-15 00:01:00",887358,3.446,55.68,12.86,0.712,17.18,107.6074,18.75,19.83,20.07,0,110.8,13.21,19.57,17.7
"2009-05-15 00:01:30",887359,2.511,35.91,10.8,0.954,16.76,107.5931,18.72,19.81,20.87,0,110.8,13.21,19.53,357.9
"2009-05-15 00:02:00",887360,3.212,40.99,6.186,0.623,16.66,107.5911,18.71,19.78,20.64,0,110.8,13.21,19.53,3.0
"2009-05-15 00:02:30",887361,2.543,32.28,8.55,0.825,16.65,107.572,18.66,19.77,21.33,0,110.8,13.21,19.48,354.3
"2009-05-15 00:03:00",887362,3.152,33.81,8.46,0.479,16.79,107.5576,18.62,19.74,21.11,0,110.8,13.21,19.44,355.8
"2009-05-15 00:03:30",887363,3.152,38.37,9.04,0.424,16.87,107.5574,18.62,19.71,20.74,0,110.8,13.21,19.44,0.4
"2009-05-15 00:04:00",887364,1.682,9.22,16.37,0.564,16.84,107.5517,18.61,19.69,20.85,0,110.8,13.21,19.43,331.2
"2009-05-15 00:04:30",887365,2.93,32.4,7.833,0.679,16.65,107.5315,18.56,19.67,20.95,0,110.8,13.21,19.37,354.4
"2009-05-15 00:05:00",887366,3.819,43.28,9.48,0.786,16.95,107.5245,18.54,19.65,20.76,0,110.8,13.21,19.36,5.3
"2009-05-15 00:05:30",887367,3.875,51.4,3.183,0.194,17.18,107.5234,18.54,19.63,20.31,0,110.8,13.21,19.35,13.4
"2009-05-15 00:06:00",887368,4.183,42.92,2.576,0.327,17.12,107.5084,18.5,19.62,19.96,0,110.8,13.21,19.32,4.9
"2009-05-15 00:06:30",887369,4.738,40.52,2.449,0.516,17.03,107.4968,18.47,19.59,20.05,0,110.8,13.21,19.29,2.5
"2009-05-15 00:07:00",887370,4.839,35.98,3.103,0.708,17.1,107.4953,18.47,19.57,19.98,0,110.8,13.21,19.28,358.0
"2009-05-15 00:07:30",887371,4.791,36.31,2.404,0.464,17.1,107.4978,18.47,19.55,19.76,0,110.8,13.21,19.29,358.3
"2009-05-15 00:08:00",887372,4.849,34.84,1.787,0.416,16.98,107.4837,18.44,19.53,19.83,0,110.8,13.21,19.25,356.8
"2009-05-15 00:08:30",887373,4.974,37.59,2.466,0.415,16.59,107.4703,18.4,19.51,20.67,0,110.8,13.21,19.22,359.6
"2009-05-15 00:09:00",887374,4.965,38.67,2.755,0.475,16.89,107.4776,18.42,19.51,20.67,0,110.8,13.22,19.24,0.7
"2009-05-15 00:09:30",887375,4.365,31.17,4.179,0.29,16.85,107.4787,18.42,19.48,20.73,0,110.8,13.21,19.24,353.2
"2009-05-15 00:10:00",887376,4.538,36.59,7.951,0.359,16.82,107.4667,18.39,19.46,20.82,0,110.8,13.21,19.21,358.6
"2009-05-15 00:10:30",887377,4.332,34.04,3.313,0.451,17.01,107.458,18.37,19.44,20.4,0,110.8,13.21,19.19,356.0
"2009-05-15 00:11:00",887378,4.419,36.73,3.007,0.35,17.02,107.458,18.37,19.43,20.59,0,110.8,13.21,19.19,358.7
"2009-05-15 00:11:30",887379,4.741,34.25,2.331,0.28,17.04,107.4586,18.37,19.4,20.23,0,110.8,13.21,19.19,356.2
"2009-05-15 00:12:00",887380,4.715,33.58,2.393,0.367,16.98,107.453,18.36,19.39,20.47,0,110.8,13.21,19.17,355.6
"2009-05-15 00:12:30",887381,3.898,26.62,3.513,0.456,16.84,107.4308,18.3,19.37,20.59,0,110.8,13.21,19.12,348.6
"2009-05-15 00:13:00",887382,3.897,27.97,2.792,0.379,16.81,107.4249,18.28,19.36,20.62,0,110.8,13.21,19.10,350.0
"2009-05-15 00:13:30",887383,4.07,29.88,5.205,0.491,16.75,107.4249,18.28,19.34,20.63,0,110.8,13.21,19.10,351.9
"2009-05-15 00:14:00",887384,4.234,31.47,4.513,0.669,16.83,107.4241,18.28,19.34,20.5,0,110.8,13.21,19.10,353.5
"2009-05-15 00:14:30",887385,3.741,31.05,5.339,0.483,16.66,107.408,18.24,19.3,20.71,0,110.8,13.22,19.06,353.0
"2009-05-15 00:15:00",887386,4.483,33.49,3.767,0.591,16.94,107.3917,18.2,19.3,20.48,0,110.8,13.22,19.02,355.5
"2009-05-15 00:15:30",887387,4.51,32.76,3.744,0.65,16.9,107.3912,18.2,19.28,20.4,0,110.8,13.22,19.01,354.8
"2009-05-15 00:16:00",887388,3.955,30.52,3.964,0.579,16.87,107.3903,18.2,19.27,20.2,0,110.8,13.22,19.01,352.5
"2009-05-15 00:16:30",887389,4.416,35.23,2.564,0.564,16.96,107.3726,18.15,19.25,20.37,0,110.8,13.22,18.97,357.2
"2009-05-15 00:17:00",887390,5.026,35.65,5.007,0.619,16.86,107.3577,18.11,19.22,20.27,0,110.8,13.22,18.93,357.6
"2009-05-15 00:17:30",887391,5.399,37.74,4.507,0.517,16.87,107.3574,18.11,19.21,20.12,0,110.8,13.22,18.93,359.7
"2009-05-15 00:18:00",887392,4.472,33.59,4.534,0.683,16.81,107.3571,18.11,19.2,20.61,0,110.7,13.22,18.93,355.6
"2009-05-15 00:18:30",887393,5.311,36.47,2.449,0.523,17.01,107.3414,18.07,19.17,20.11,0,110.7,13.22,18.89,358.5
"2009-05-15 00:19:00",887394,4.958,38.18,2.862,0.47,16.88,107.3256,18.03,19.16,20.08,0,110.7,13.22,18.84,0.2
"2009-05-15 00:19:30",887395,5.397,45.27,2.751,0.194,16.92,107.3252,18.03,19.14,19.91,0,110.7,13.22,18.84,7.3
"2009-05-15 00:20:00",887396,5.375,40.97,1.893,0.252,16.83,107.3258,18.03,19.13,20.01,0,110.7,13.23,18.85,3.0
"2009-05-15 00:20:30",887397,5.684,40.67,1.385,0.109,16.9,107.3327,18.05,19.1,19.76,0,110.7,13.23,18.86,2.7
"2009-05-15 00:21:00",887398,5.575,38.16,1.046,0.201,16.97,107.3375,18.06,19.11,19.71,0,110.7,13.23,18.88,0.2
"2009-05-15 00:21:30",887399,5.766,42.24,2.604,0.299,17.01,107.3344,18.05,19.07,19.7,0,110.7,13.23,18.87,4.2
"2009-05-15 00:22:00",887400,5.863,43.19,2.626,0.209,16.98,107.333,18.05,19.06,19.8,0,110.7,13.23,18.86,5.2
"2009-05-15 00:22:30",887401,5.535,40.14,1.982,0.287,16.93,107.3241,18.03,19.05,20.04,0,110.7,13.23,18.84,2.1
"2009-05-15 00:23:00",887402,5.358,40.53,3.152,0.217,16.91,107.3188,18.01,19.06,20.11,0,110.7,13.23,18.83,2.5
"2009-05-15 00:23:30",887403,4.223,34.09,2.793,0.514,16.85,107.3207,18.02,19.04,20.2,0,110.7,13.23,18.83,356.1
"2009-05-15 00:24:00",887404,3.872,30.12,4.932,0.455,16.8,107.3228,18.02,19.03,20.29,0,110.7,13.23,18.84,352.1
"2009-05-15 00:24:30",887405,3.787,28.13,3.751,0.395,16.7,107.3246,18.03,19.03,20.46,0,110.7,13.23,18.84,350.1
"2009-05-15 00:25:00",887406,4.599,30.06,5.101,0.416,16.84,107.3261,18.03,19.02,20.6,0,110.7,13.23,18.85,352.1
"2009-05-15 00:25:30",887407,4.015,30.14,2.909,0.397,16.86,107.3261,18.03,19.03,20.69,0,110.7,13.23,18.85,352.1
"2009-05-15 00:26:00",887408,4.584,32.51,6.253,0.728,16.8,107.3261,18.03,19.02,20.89,0,110.7,13.23,18.85,354.5
"2009-05-15 00:26:30",887409,4.665,33.03,3.437,0.956,16.82,107.3258,18.03,19,20.89,0,110.7,13.22,18.85,355.0
"2009-05-15 00:27:00",887410,5.018,33.45,3.799,0.758,16.88,107.3199,18.02,19.01,20.79,0,110.7,13.22,18.83,355.5
"2009-05-15 00:27:30",887411,4.249,28.56,3.519,0.537,16.76,107.3064,17.98,19,20.65,0,110.7,13.22,18.80,350.6
"2009-05-15 00:28:00",887412,4.079,29.73,3.091,0.548,16.75,107.2971,17.96,18.98,20.74,0,110.7,13.22,18.77,351.7
"2009-05-15 00:28:30",887413,4.64,28.39,3.186,0.305,16.79,107.2926,17.95,19,20.39,0,110.7,13.22,18.76,350.4
"2009-05-15 00:29:00",887414,3.525,25.06,2.477,0.222,16.72,107.2924,17.94,18.99,20.48,0,110.7,13.22,18.76,347.1
"2009-05-15 00:29:30",887415,3.989,27.44,1.891,0.592,16.76,107.2924,17.94,18.99,20.5,0,110.7,13.23,18.76,349.4
"2009-05-15 00:30:00",887416,3.421,18.9,3.082,0.213,16.68,107.2924,17.94,18.97,20.62,0,110.7,13.23,18.76,340.9
"2009-05-15 00:30:30",887417,3.152,16.91,3.279,0.495,16.58,107.2924,17.94,18.96,20.99,0,110.7,13.23,18.76,338.9
"2009-05-15 00:31:00",887418,3.738,26.77,3.86,0.369,16.75,107.2924,17.94,18.97,21.02,0,110.7,13.23,18.76,348.8
"2009-05-15 00:31:30",887419,4.218,30.84,3.876,0.577,16.95,107.2924,17.94,18.97,20.7,0,110.7,13.23,18.76,352.8
"2009-05-15 00:32:00",887420,3.984,30.16,3.271,0.561,16.9,107.2924,17.94,18.95,20.57,0,110.7,13.24,18.76,352.2
"2009-05-15 00:32:30",887421,4.81,35.23,2.617,0.583,16.82,107.2924,17.94,18.95,20.57,0,110.7,13.24,18.76,357.2
"2009-05-15 00:33:00",887422,4.61,38.83,3.911,0.475,16.85,107.2924,17.94,18.95,20.68,0,110.7,13.24,18.76,0.8
"2009-05-15 00:33:30",887423,3.997,30.4,4.283,0.419,16.86,107.2924,17.94,18.95,20.64,0,110.7,13.24,18.76,352.4
"2009-05-15 00:34:00",887424,4.858,38.3,1.978,0.358,16.86,107.2904,17.94,18.93,20.57,0,110.7,13.24,18.75,0.3
"2009-05-15 00:34:30",887425,5.074,37.67,2.147,0.277,16.81,107.2851,17.93,18.94,20.62,0,110.7,13.24,18.74,359.7
"2009-05-15 00:35:00",887426,4.444,34.61,2.809,0.686,16.89,107.2781,17.91,18.94,20.91,0,110.7,13.24,18.72,356.6
"2009-05-15 00:35:30",887427,5.244,42.62,1.944,0.252,16.91,107.2753,17.9,18.94,20.86,0,110.7,13.24,18.72,4.6
"2009-05-15 00:36:00",887428,5.069,41.79,2.673,0.266,16.93,107.2749,17.9,18.92,20.71,0,110.7,13.24,18.71,3.8
"2009-05-15 00:36:30",887429,4.355,39.33,3.493,0.393,16.85,107.2758,17.9,18.94,20.86,0,110.7,13.24,18.72,1.3
"2009-05-15 00:37:00",887430,4.037,34.58,2.768,0.505,16.85,107.2755,17.9,18.93,20.77,0,110.7,13.24,18.72,356.6
"2009-05-15 00:37:30",887431,4.804,36.84,3.82,0.597,16.86,107.2778,17.91,18.93,20.63,0,110.7,13.24,18.72,358.8
"2009-05-15 00:38:00",887432,4.733,36.06,1.539,0.336,16.89,107.2752,17.9,18.93,20.3,0,110.7,13.24,18.72,358.1
"2009-05-15 00:38:30",887433,5.047,35.96,1.653,0.335,16.89,107.2792,17.91,18.92,20.05,0,110.7,13.24,18.73,358.0
"2009-05-15 00:39:00",887434,3.712,31.56,2.464,0.523,16.77,107.2773,17.91,18.93,20.33,0,110.7,13.24,18.72,353.6
"2009-05-15 00:39:30",887435,3.698,31.72,2.537,0.558,16.77,107.2748,17.9,18.93,20.61,0,110.7,13.24,18.71,353.7
"2009-05-15 00:40:00",887436,3.786,31.92,2.498,0.551,16.76,107.2771,17.91,18.94,20.68,0,110.7,13.24,18.72,353.9
"2009-05-15 00:40:30",887437,4.097,32.71,3.041,0.578,16.83,107.278,17.91,18.94,20.61,0,110.7,13.24,18.72,354.7
"2009-05-15 00:41:00",887438,4.92,38.82,2.158,0.416,16.92,107.2771,17.91,18.94,20.46,0,110.7,13.24,18.72,0.8
"2009-05-15 00:41:30",887439,5.204,39.99,2.654,0.264,16.88,107.2772,17.91,18.94,20.32,0,110.7,13.24,18.72,2.0
"2009-05-15 00:42:00",887440,5.236,40.87,2.549,0.172,16.93,107.2803,17.91,18.93,20.37,0,110.7,13.24,18.73,2.9
"2009-05-15 00:42:30",887441,5.188,40.34,1.52,0.163,16.95,107.2791,17.91,18.93,20.33,0,110.7,13.24,18.73,2.3
"2009-05-15 00:43:00",887442,4.605,34.79,2.691,0.609,16.85,107.2818,17.92,18.92,20.39,0,110.7,13.24,18.73,356.8
"2009-05-15 00:43:30",887443,5.042,36.24,1.433,0.247,16.79,107.2831,17.92,18.93,20.4,0,110.7,13.24,18.74,358.2
"2009-05-15 00:44:00",887444,5.188,38.9,2.569,0.245,16.89,107.287,17.93,18.93,20.46,0,110.7,13.24,18.75,0.9
"2009-05-15 00:44:30",887445,5.464,42.41,2.653,0.327,17,107.2891,17.94,18.93,20.38,0,110.7,13.24,18.75,4.4
"2009-05-15 00:45:00",887446,5.383,40.07,2.048,0.294,16.9,107.2918,17.94,18.93,20.48,0,110.7,13.24,18.76,2.1
"2009-05-15 00:45:30",887447,5.299,37.81,3.158,0.601,16.91,107.293,17.95,18.92,20.4,0,110.7,13.24,18.76,359.8
"2009-05-15 00:46:00",887448,5.757,41.82,2.335,0.157,16.97,107.2936,17.95,18.93,20.08,0,110.7,13.24,18.76,3.8
"2009-05-15 00:46:30",887449,5.813,43.18,1.058,0.172,17.04,107.2942,17.95,18.91,19.95,0,110.7,13.24,18.76,5.2
"2009-05-15 00:47:00",887450,5.565,42.01,1.765,0.205,17.06,107.2948,17.95,18.9,19.96,0,110.7,13.24,18.77,4.0
"2009-05-15 00:47:30",887451,5.477,41.03,2.088,0.154,16.96,107.2948,17.95,18.91,20.07,0,110.7,13.24,18.77,3.0
"2009-05-15 00:48:00",887452,5.797,39.25,2.561,0.332,16.98,107.2948,17.95,18.91,20.13,0,110.7,13.24,18.77,1.2
"2009-05-15 00:48:30",887453,5.589,42.03,1.24,0.278,16.99,107.2948,17.95,18.92,20.18,0,110.7,13.24,18.77,4.0
"2009-05-15 00:49:00",887454,5.573,38.74,1.511,0.459,17.02,107.2948,17.95,18.91,20.22,0,110.7,13.24,18.77,0.7
"2009-05-15 00:49:30",887455,5.943,43.04,1.757,0.297,17,107.2948,17.95,18.91,20.25,0,110.7,13.24,18.77,5.0
"2009-05-15 00:50:00",887456,5.343,41.33,2.471,0.188,16.92,107.2948,17.95,18.9,20.26,0,110.7,13.25,18.77,3.3
"2009-05-15 00:50:30",887457,4.914,34.23,1.71,0.409,16.97,107.2948,17.95,18.91,20.22,0,110.7,13.25,18.77,356.2
"2009-05-15 00:51:00",887458,4.624,32.46,2.332,0.531,16.97,107.2937,17.95,18.9,20.1,0,110.7,13.25,18.76,354.5
"2009-05-15 00:51:30",887459,4.278,32.06,1.716,0.464,16.99,107.2872,17.93,18.9,19.74,0,110.7,13.25,18.75,354.1
"2009-05-15 00:52:00",887460,4.551,32.1,1.909,0.415,16.99,107.2841,17.92,18.91,19.65,0,110.7,13.25,18.74,354.1
"2009-05-15 00:52:30",887461,4.234,31.02,1.862,0.328,16.99,107.2774,17.91,18.9,19.58,0,110.7,13.25,18.72,353.0
"2009-05-15 00:53:00",887462,4.334,30.52,1.872,0.487,16.95,107.2706,17.89,18.9,19.46,0,110.7,13.25,18.70,352.5
"2009-05-15 00:53:30",887463,4.344,30.68,2.006,0.432,16.96,107.2636,17.87,18.9,19.48,0,110.7,13.25,18.69,352.7
"2009-05-15 00:54:00",887464,4.438,31.6,1.024,0.339,16.99,107.2613,17.87,18.9,19.35,0,110.7,13.25,18.68,353.6
"2009-05-15 00:54:30",887465,4.569,32.51,1.13,0.343,17.02,107.2611,17.86,18.9,19.31,0,110.7,13.25,18.68,354.5
"2009-05-15 00:55:00",887466,3.918,29.43,2.192,0.334,16.98,107.2611,17.86,18.9,19.59,0,110.7,13.25,18.68,351.4
"2009-05-15 00:55:30",887467,4.681,33.53,2.257,0.559,17.05,107.2611,17.86,18.89,19.72,0,110.7,13.25,18.68,355.5
"2009-05-15 00:56:00",887468,4.73,35.35,2.307,0.365,17.1,107.2611,17.86,18.88,19.69,0,110.7,13.25,18.68,357.4
"2009-05-15 00:56:30",887469,4.543,34.11,3.01,0.497,16.96,107.2611,17.86,18.87,19.89,0,110.7,13.25,18.68,356.1
"2009-05-15 00:57:00",887470,4.072,30.49,2.963,0.609,16.94,107.2611,17.86,18.87,19.84,0,110.7,13.26,18.68,352.5
"2009-05-15 00:57:30",887471,4.032,31.23,1.695,0.386,16.94,107.2611,17.86,18.86,19.76,0,110.7,13.26,18.68,353.2
"2009-05-15 00:58:00",887472,3.631,28.81,2.621,0.286,16.87,107.2597,17.86,18.86,20.03,0,110.7,13.26,18.68,350.8
"2009-05-15 00:58:30",887473,3.682,25.17,3.347,0.372,16.81,107.2532,17.84,18.85,20.25,0,110.7,13.26,18.66,347.2
"2009-05-15 00:59:00",887474,3.652,27.47,3.441,0.301,16.85,107.2461,17.83,18.86,20.57,0,110.7,13.26,18.64,349.5
"2009-05-15 00:59:30",887475,3.648,23.49,4.058,0.437,16.68,107.2357,17.8,18.85,20.62,0,110.7,13.26,18.61,345.5
"2009-05-15 01:00:00",887476,3.617,26.77,3.598,0.291,16.83,107.2287,17.78,18.84,20.94,0,110.6,13.25,18.60,348.8
"2009-05-15 01:00:30",887477,3.779,24.01,3.069,0.34,16.83,107.2273,17.78,18.84,20.91,0,110.6,13.25,18.59,346.0
"2009-05-15 01:01:00",887478,3.969,21.42,2.132,0.241,16.8,107.2276,17.78,18.83,20.99,0,110.7,13.25,18.59,343.4
"2009-05-15 01:01:30",887479,3.934,20.86,1.744,0.204,16.77,107.2276,17.78,18.83,21.37,0,110.6,13.25,18.59,342.9
"2009-05-15 01:02:00",887480,3.948,21.27,2.329,0.333,16.83,107.2285,17.78,18.83,21.65,0,110.6,13.25,18.60,343.3
"2009-05-15 01:02:30",887481,3.872,20.53,3.734,0.512,16.84,107.2288,17.78,18.82,21.57,0,110.6,13.25,18.60,342.5
"2009-05-15 01:03:00",887482,3.973,25.87,3.107,0.289,16.98,107.2306,17.79,18.82,21.49,0,110.6,13.25,18.60,347.9
"2009-05-15 01:03:30",887483,3.82,27.34,3.242,0.236,16.98,107.2313,17.79,18.82,21.25,0,110.6,13.25,18.60,349.3
"2009-05-15 01:04:00",887484,4.07,23.55,3.021,0.315,16.85,107.2222,17.76,18.8,21.55,0,110.6,13.25,18.58,345.5
"2009-05-15 01:04:30",887485,3.772,25.39,1.929,0.205,16.91,107.2054,17.72,18.8,21.52,0,110.6,13.25,18.54,347.4
"2009-05-15 01:05:00",887486,3.877,25.96,2.021,0.219,16.86,107.2074,17.73,18.79,21.3,0,110.6,13.26,18.54,348.0
"2009-05-15 01:05:30",887487,4.103,22.87,1.544,0.24,16.8,107.2089,17.73,18.78,21.32,0,110.6,13.26,18.54,344.9
"2009-05-15 01:06:00",887488,4.146,23.31,1.167,0.155,16.81,107.211,17.74,18.77,21.44,0,110.6,13.26,18.55,345.3
"2009-05-15 01:06:30",887489,3.972,23.55,1.759,0.316,16.77,107.2152,17.75,18.75,21.66,0,110.6,13.26,18.56,345.5
"2009-05-15 01:07:00",887490,4.174,24.36,1.339,0.238,16.8,107.2079,17.73,18.76,21.73,0,110.6,13.26,18.54,346.4
"2009-05-15 01:07:30",887491,4.357,23.33,1.541,0.281,16.72,107.1913,17.69,18.74,21.79,0,110.6,13.26,18.50,345.3
"2009-05-15 01:08:00",887492,4.408,22.37,2.278,0.295,16.71,107.1858,17.67,18.73,22.11,0,110.6,13.26,18.49,344.4
"2009-05-15 01:08:30",887493,4.325,22.73,1.883,0.216,16.77,107.1857,17.67,18.73,22.2,0,110.6,13.26,18.48,344.7
"2009-05-15 01:09:00",887494,4.254,23.81,2.442,0.303,16.77,107.1893,17.68,18.7,21.97,0,110.6,13.26,18.49,345.8
"2009-05-15 01:09:30",887495,4.094,26.15,1.659,0.18,16.74,107.1896,17.68,18.71,22.04,0,110.6,13.26,18.50,348.1
"2009-05-15 01:10:00",887496,4.154,25.23,2.293,0.215,16.78,107.19,17.68,18.69,22.07,0,110.6,13.26,18.50,347.2
"2009-05-15 01:10:30",887497,4.317,23.07,1.417,0.214,16.74,107.1752,17.64,18.67,22.07,0,110.6,13.26,18.46,345.1
"2009-05-15 01:11:00",887498,4.142,25.57,1.363,0.22,16.74,107.1596,17.6,18.67,22.17,0,110.6,13.26,18.42,347.6
"2009-05-15 01:11:30",887499,4.237,24.69,1.482,0.187,16.72,107.1588,17.6,18.65,22.17,0,110.6,13.26,18.42,346.7
"2009-05-15 01:12:00",887500,4.16,25.14,1.065,0.156,16.75,107.1616,17.61,18.64,22.48,0,110.6,13.26,18.42,347.1
"2009-05-15 01:12:30",887501,3.958,25.26,1.228,0.141,16.77,107.161,17.61,18.63,22.28,0,110.6,13.26,18.42,347.3
"2009-05-15 01:13:00",887502,4.142,24.34,1.29,0.175,16.73,107.1517,17.58,18.61,22.25,0,110.6,13.26,18.40,346.3
"2009-05-15 01:13:30",887503,4.086,23.85,1.079,0.15,16.76,107.1334,17.54,18.6,22.17,0,110.6,13.26,18.35,345.9
"2009-05-15 01:14:00",887504,4.075,22.48,1.574,0.2,16.76,107.1284,17.52,18.58,21.88,0,110.6,13.26,18.34,344.5
"2009-05-15 01:14:30",887505,4.167,21.55,1.755,0.209,16.76,107.1284,17.52,18.57,21.62,0,110.6,13.26,18.34,343.5
"2009-05-15 01:15:00",887506,4.32,19.97,1.374,0.137,16.78,107.1284,17.52,18.55,21.47,0,110.6,13.27,18.34,342.0
"2009-05-15 01:15:30",887507,4.387,20.86,1.291,0.172,16.69,107.1253,17.52,18.54,21.44,0,110.6,13.27,18.33,342.9
"2009-05-15 01:16:00",887508,4.301,19.04,1.299,0.341,16.71,107.1151,17.49,18.53,21.62,0,110.6,13.27,18.30,341.0
"2009-05-15 01:16:30",887509,4.203,19.94,1.05,0.159,16.78,107.1019,17.46,18.52,21.44,0,110.6,13.26,18.27,341.9
"2009-05-15 01:17:00",887510,4.246,18.81,0.997,0.199,16.8,107.0952,17.44,18.51,21.33,0,110.6,13.26,18.25,340.8
"2009-05-15 01:17:30",887511,4.262,19.55,1.151,0.149,16.79,107.0946,17.44,18.5,21.23,0,110.6,13.26,18.25,341.5
"2009-05-15 01:18:00",887512,4.353,20.77,1.603,0.257,16.78,107.0946,17.44,18.48,21.19,0,110.6,13.26,18.25,342.8
"2009-05-15 01:18:30",887513,3.692,15.62,9.47,0.677,16.84,107.0946,17.44,18.47,21.5,0,110.6,13.26,18.25,337.6
"2009-05-15 01:19:00",887514,3.276,16.15,6.049,0.745,16.68,107.0946,17.44,18.48,21.34,0,110.6,13.26,18.25,338.1
"2009-05-15 01:19:30",887515,3.661,15.1,5.543,0.429,16.74,107.0938,17.44,18.45,21.69,0,110.6,13.26,18.25,337.1
"2009-05-15 01:20:00",887516,2.51,6.398,6.232,0.702,16.66,107.0845,17.41,18.45,21.64,0,110.6,13.26,18.22,328.4
"2009-05-15 01:20:30",887517,3.63,17.34,7.058,0.683,16.77,107.0777,17.39,18.44,21.47,0,110.6,13.26,18.21,339.3
"2009-05-15 01:21:00",887518,4.048,18.86,3.444,0.662,16.76,107.0636,17.36,18.42,21.3,0,110.6,13.26,18.17,340.9
"2009-05-15 01:21:30",887519,3.418,16.52,3.886,0.752,16.8,107.0608,17.35,18.42,21.35,0,110.6,13.26,18.16,338.5
"2009-05-15 01:22:00",887520,4.254,23.38,2.798,0.363,16.92,107.0608,17.35,18.4,21.16,0,110.6,13.27,18.16,345.4
"2009-05-15 01:22:30",887521,4.273,20.78,3.846,0.455,16.93,107.0608,17.35,18.41,20.94,0,110.6,13.27,18.16,342.8
"2009-05-15 01:23:00",887522,4.055,19.72,5.664,0.986,17.02,107.0608,17.35,18.39,20.78,0,110.6,13.27,18.16,341.7
"2009-05-15 01:23:30",887523,4.51,26.91,4.293,0.669,17.03,107.0608,17.35,18.38,20.61,0,110.6,13.27,18.16,348.9
"2009-05-15 01:24:00",887524,4.05,21.39,4.928,0.641,16.96,107.0597,17.35,18.38,20.6,0,110.6,13.27,18.16,343.4
"2009-05-15 01:24:30",887525,3.755,20.97,6.895,0.819,16.93,107.0512,17.33,18.36,20.6,0,110.6,13.27,18.14,343.0
"2009-05-15 01:25:00",887526,4.129,21.49,2.833,0.25,16.82,107.0431,17.31,18.37,20.82,0,110.6,13.27,18.12,343.5
"2009-05-15 01:25:30",887527,4.144,22.77,3.114,0.223,16.88,107.0355,17.29,18.36,20.99,0,110.6,13.27,18.10,344.8
"2009-05-15 01:26:00",887528,4.551,24.03,4.112,0.462,16.97,107.0279,17.27,18.35,20.76,0,110.6,13.27,18.08,346.0
"2009-05-15 01:26:30",887529,4.314,23.78,2.248,0.339,16.95,107.027,17.26,18.33,20.68,0,110.6,13.27,18.08,345.8
"2009-05-15 01:27:00",887530,4.242,24.15,3.657,0.426,16.93,107.027,17.26,18.34,20.72,0,110.6,13.27,18.08,346.1
"2009-05-15 01:27:30",887531,4.08,22.91,2.754,0.313,16.83,107.027,17.26,18.33,20.86,0,110.6,13.27,18.08,344.9
"2009-05-15 01:28:00",887532,4.15,22.13,3.348,0.304,16.85,107.027,17.26,18.32,20.89,0,110.6,13.27,18.08,344.1
"2009-05-15 01:28:30",887533,4.156,20.49,1.992,0.331,16.83,107.027,17.26,18.32,20.93,0,110.6,13.27,18.08,342.5
"2009-05-15 01:29:00",887534,3.958,23.39,2.446,0.351,16.85,107.027,17.26,18.31,21.01,0,110.6,13.27,18.08,345.4
"2009-05-15 01:29:30",887535,3.87,18.72,2.504,0.439,16.78,107.027,17.26,18.3,21.09,0,110.6,13.27,18.08,340.7
"2009-05-15 01:30:00",887536,3.993,18.99,2.203,0.491,16.79,107.027,17.26,18.29,21.11,0,110.6,13.27,18.08,341.0
"2009-05-15 01:30:30",887537,3.624,17.69,1.748,0.353,16.78,107.027,17.26,18.29,21.15,0,110.6,13.27,18.08,339.7
"2009-05-15 01:31:00",887538,3.989,18.48,1.811,0.444,16.89,107.027,17.26,18.3,21.14,0,110.6,13.27,18.08,340.5
"2009-05-15 01:31:30",887539,3.275,16.01,3.091,0.723,16.84,107.0273,17.27,18.28,21.08,0,110.6,13.27,18.08,338.0
"2009-05-15 01:32:00",887540,4.236,18.25,3.714,0.793,16.89,107.0236,17.26,18.28,21.2,0,110.6,13.27,18.07,340.2
"2009-05-15 01:32:30",887541,4.295,17.49,3.046,0.796,16.86,107.0141,17.23,18.29,21.14,0,110.6,13.27,18.04,339.5
"2009-05-15 01:33:00",887542,2.915,9.79,6.781,0.894,16.77,107.0046,17.21,18.28,21.13,0,110.6,13.27,18.02,331.8
"2009-05-15 01:33:30",887543,3.213,10.15,5.976,0.83,16.82,106.9977,17.19,18.27,20.99,0,110.6,13.27,18.00,332.1
"2009-05-15 01:34:00",887544,3.137,9.36,7.462,1.097,16.87,106.9972,17.19,18.27,20.79,0,110.6,13.27,18.00,331.4
"2009-05-15 01:34:30",887545,2.803,4.844,6.086,0.344,16.89,107.0011,17.2,18.26,20.64,0,110.6,13.27,18.01,326.8
"2009-05-15 01:35:00",887546,3.268,4.273,6.023,1.087,16.86,107.0017,17.2,18.25,20.71,0,110.6,13.27,18.01,326.3
"2009-05-15 01:35:30",887547,5.054,12.06,4.907,1.216,16.97,107.0044,17.21,18.24,20.59,0,110.6,13.27,18.02,334.1
"2009-05-15 01:36:00",887548,3.885,4.94,2.55,0.875,16.92,107.0016,17.2,18.23,20.58,0,110.6,13.27,18.01,326.9
"2009-05-15 01:36:30",887549,3.244,8.45,5.19,0.501,16.9,106.9989,17.19,18.23,20.66,0,110.6,13.27,18.00,330.5
"2009-05-15 01:37:00",887550,2.895,8.16,6.613,0.704,16.84,106.9834,17.15,18.21,20.75,0,110.6,13.27,17.96,330.2
"2009-05-15 01:37:30",887551,3.735,13.83,6.508,0.529,16.92,106.9799,17.14,18.19,20.91,0,110.6,13.27,17.96,335.8
"2009-05-15 01:38:00",887552,3.319,7.268,4.973,0.814,16.91,106.9836,17.15,18.2,20.72,0,110.6,13.27,17.97,329.3
"2009-05-15 01:38:30",887553,3.669,15.07,6.566,0.921,17.01,106.9842,17.15,18.19,20.62,0,110.6,13.27,17.97,337.1
"2009-05-15 01:39:00",887554,4.252,18.76,4.365,0.567,17.04,106.9848,17.16,18.17,20.47,0,110.6,13.28,17.97,340.8
"2009-05-15 01:39:30",887555,4.214,20.32,2.636,0.271,16.99,106.986,17.16,18.17,20.44,0,110.6,13.28,17.97,342.3
"2009-05-15 01:40:00",887556,2.934,11.97,30.54,0.73,16.76,106.9866,17.16,18.16,20.76,0,110.6,13.28,17.97,334.0
"2009-05-15 01:40:30",887557,4.041,15.69,4.416,0.54,16.89,106.9891,17.17,18.16,20.96,0,110.6,13.28,17.98,337.7
"2009-05-15 01:41:00",887558,3.577,15,5.251,0.777,16.89,106.9807,17.15,18.15,20.88,0,110.5,13.28,17.96,337.0
"2009-05-15 01:41:30",887559,3.69,14.11,5.907,0.691,16.87,106.9699,17.12,18.15,20.88,0,110.6,13.28,17.93,336.1
"2009-05-15 01:42:00",887560,4.126,19.1,3.197,0.415,16.95,106.968,17.11,18.13,20.88,0,110.6,13.28,17.92,341.1
"2009-05-15 01:42:30",887561,2.824,12.73,3.44,0.724,16.72,106.9623,17.1,18.14,21.12,0,110.6,13.28,17.91,334.7
"2009-05-15 01:43:00",887562,4.172,13.51,84.8,0.847,16.8,106.9606,17.09,18.13,21.38,0,110.6,13.28,17.91,335.5
"2009-05-15 01:43:30",887563,3.194,10,38.33,0.723,16.76,106.9615,17.1,18.12,21.48,0,110.6,13.28,17.91,332.0
"2009-05-15 01:44:00",887564,4.381,17.1,3.907,1.086,16.87,106.9612,17.1,18.11,21.48,0,110.5,13.28,17.91,339.1
"2009-05-15 01:44:30",887565,4.231,18.14,1.13,0.303,16.86,106.9618,17.1,18.12,21.46,0,110.5,13.28,17.91,340.1
"2009-05-15 01:45:00",887566,4.419,19.77,1.845,0.263,16.9,106.9618,17.1,18.1,21.37,0,110.5,13.28,17.91,341.8
"2009-05-15 01:45:30",887567,4.022,16.16,2.163,0.455,16.86,106.9598,17.09,18.08,21.27,0,110.5,13.28,17.90,338.2
"2009-05-15 01:46:00",887568,3.224,11.62,4.415,0.534,16.85,106.9443,17.05,18.07,21.2,0,110.5,13.28,17.86,333.6
"2009-05-15 01:46:30",887569,3.027,9.49,5.203,0.359,16.82,106.9334,17.02,18.07,21.1,0,110.5,13.28,17.84,331.5
"2009-05-15 01:47:00",887570,3.302,8.82,4.247,0.331,16.86,106.928,17.01,18.07,21.01,0,110.5,13.28,17.82,330.8
"2009-05-15 01:47:30",887571,3.291,6.836,4.42,0.361,16.8,106.928,17.01,18.05,20.88,0,110.5,13.28,17.82,328.8